START_TIME,STEP,MOV.,AL01,t_acc.,AL02,t_acc.,E37,t_acc.,H21,t_acc.
1980-11-16 03:00:22.900 ,4,0,0.,24.0,0.,24.0,0.,24.0,0.,24.0
1980-11-16 03:00:46.900 ,5,1,0.,24.0,0.,24.0,0.,24.0,0.,24.0
1980-11-16 03:01:10.900 ,5,0,0.,24.0,0.,24.0,0.,24.0,0.,24.0
1980-11-16 03:01:34.900 ,6,1,0.,24.0,0.,24.0,1.,24.0,0.,24.0
1980-11-16 03:01:58.900 ,6,0,0.,24.0,0.,24.0,0.,24.0,0.,24.0
1980-11-16 03:02:22.900 ,7,1,4.,24.0,0.,24.0,1.,24.0,0.,24.0
1980-11-16 03:02:46.900 ,7,0,7.,24.0,0.,24.0,1.,24.0,0.,24.0
1980-11-16 03:03:10.900 ,7,1,8.,24.0,0.,24.0,0.,24.0,0.,24.0
1980-11-16 03:03:34.900 ,7,0,8.,24.0,0.,24.0,1.,24.0,0.,24.0
1980-11-16 03:03:58.900 ,6,1,13.,24.0,0.,24.0,1.,24.0,0.,24.0
1980-11-16 03:04:22.900 ,6,0,0.,24.0,0.,24.0,1.,24.0,0.,24.0
1980-11-16 03:04:46.900 ,5,1,0.,24.0,0.,24.0,0.,24.0,0.,24.0
1980-11-16 03:05:10.900 ,5,0,0.,24.0,0.,24.0,1.,24.0,0.,24.0
1980-11-16 03:05:34.900 ,4,1,0.,24.0,0.,24.0,0.,24.0,0.,24.0
1980-11-16 03:05:58.900 ,4,0,0.,24.0,0.,24.0,0.,24.0,0.,24.0
1980-11-16 03:06:22.900 ,3,1,0.,24.0,0.,24.0,1.,24.0,0.,24.0
1980-11-16 03:06:46.900 ,3,0,0.,24.0,0.,24.0,0.,24.0,0.,24.0
1980-11-16 03:07:10.900 ,2,1,0.,24.0,0.,24.0,0.,24.0,0.,24.0
1980-11-16 03:07:34.900 ,2,0,0.,24.0,0.,24.0,1.,24.0,0.,24.0
1980-11-16 03:07:58.900 ,1,1,0.,24.0,0.,24.0,0.,24.0,0.,24.0
1980-11-16 03:08:22.900 ,1,0,0.,24.0,0.,24.0,0.,24.0,0.,24.0
1980-11-16 03:08:46.900 ,0,1,0.,24.0,0.,24.0,0.,24.0,0.,24.0
1980-11-16 03:09:10.900 ,0,0,0.,24.0,0.,24.0,0.,24.0,0.,24.0
1980-11-16 03:09:34.900 ,0,1,0.,24.0,0.,24.0,0.,24.0,0.,24.0
1980-11-16 03:09:58.900 ,0,0,0.,24.0,0.,24.0,1.,24.0,0.,24.0
1980-11-16 03:10:22.900 ,1,1,0.,24.0,0.,24.0,0.,24.0,0.,24.0
1980-11-16 03:10:46.900 ,1,0,0.,24.0,0.,24.0,1.,24.0,0.,24.0
1980-11-16 03:11:10.900 ,2,1,0.,24.0,0.,24.0,1.,24.0,0.,24.0
1980-11-16 03:11:34.900 ,2,0,0.,24.0,0.,24.0,0.,24.0,0.,24.0
1980-11-16 03:11:58.900 ,3,1,0.,24.0,0.,24.0,0.,24.0,0.,24.0
1980-11-16 03:12:22.900 ,3,0,0.,24.0,0.,24.0,0.,24.0,0.,24.0
1980-11-16 03:12:46.900 ,4,1,0.,24.0,0.,24.0,1.,24.0,0.,24.0
1980-11-16 03:13:10.900 ,4,0,0.,24.0,0.,24.0,0.,24.0,0.,24.0
1980-11-16 03:13:34.900 ,5,1,0.,24.0,0.,24.0,0.,24.0,0.,24.0
1980-11-16 03:13:58.900 ,5,0,0.,24.0,0.,24.0,0.,24.0,0.,24.0
1980-11-16 03:14:22.900 ,6,1,0.,24.0,0.,24.0,0.,24.0,0.,24.0
1980-11-16 03:14:46.900 ,6,0,0.,24.0,0.,24.0,0.,24.0,0.,24.0
1980-11-16 03:15:10.900 ,7,1,2.,24.0,0.,24.0,3.,24.0,0.,24.0
1980-11-16 03:15:34.900 ,7,0,7.,24.0,0.,24.0,0.,24.0,0.,24.0
1980-11-16 03:15:58.900 ,7,1,10.,24.0,0.,24.0,0.,24.0,0.,24.0
1980-11-16 03:16:22.900 ,7,0,7.,24.0,0.,24.0,0.,24.0,0.,24.0
1980-11-16 03:16:46.900 ,6,1,3.,24.0,0.,24.0,2.,24.0,0.,24.0
1980-11-16 03:17:10.900 ,6,0,0.,24.0,0.,24.0,0.,24.0,0.,24.0
1980-11-16 03:17:34.900 ,5,1,0.,24.0,0.,24.0,1.,24.0,0.,24.0
1980-11-16 03:17:58.900 ,5,0,0.,24.0,0.,24.0,0.,24.0,0.,24.0
1980-11-16 03:18:22.900 ,4,1,0.,24.0,0.,24.0,0.,24.0,0.,24.0
1980-11-16 03:18:46.900 ,4,0,0.,24.0,0.,24.0,1.,24.0,0.,24.0
1980-11-16 03:19:10.900 ,3,1,0.,24.0,0.,24.0,1.,24.0,0.,24.0
1980-11-16 03:19:34.900 ,3,0,0.,24.0,0.,24.0,0.,24.0,0.,24.0
1980-11-16 03:19:58.900 ,2,1,0.,24.0,0.,24.0,1.,24.0,0.,24.0
1980-11-16 03:20:22.900 ,2,0,0.,24.0,0.,24.0,0.,24.0,0.,24.0
1980-11-16 03:20:46.900 ,1,1,0.,24.0,0.,24.0,0.,24.0,0.,24.0
1980-11-16 03:21:10.900 ,1,0,0.,24.0,0.,24.0,0.,24.0,0.,24.0
1980-11-16 03:21:34.900 ,0,1,0.,24.0,0.,24.0,1.,24.0,0.,24.0
1980-11-16 03:21:58.900 ,0,0,0.,24.0,0.,24.0,1.,24.0,0.,24.0
1980-11-16 03:22:22.900 ,0,1,0.,24.0,0.,24.0,0.,24.0,0.,24.0
1980-11-16 03:22:46.900 ,0,0,0.,24.0,0.,24.0,0.,24.0,0.,24.0
1980-11-16 03:23:10.900 ,1,1,0.,24.0,0.,24.0,1.,24.0,0.,24.0
1980-11-16 03:23:34.900 ,1,0,0.,24.0,0.,24.0,0.,24.0,0.,24.0
1980-11-16 03:23:58.900 ,2,1,0.,24.0,0.,24.0,0.,24.0,0.,24.0
1980-11-16 03:24:22.900 ,2,0,0.,24.0,1.,24.0,0.,24.0,0.,24.0
1980-11-16 03:24:46.900 ,3,1,0.,24.0,0.,24.0,0.,24.0,0.,24.0
1980-11-16 03:25:10.900 ,3,0,0.,24.0,0.,24.0,0.,24.0,0.,24.0
1980-11-16 03:25:34.900 ,4,1,0.,24.0,0.,24.0,0.,24.0,0.,24.0
1980-11-16 03:25:58.900 ,4,0,0.,24.0,0.,24.0,0.,24.0,0.,24.0
1980-11-16 03:26:22.900 ,5,1,0.,24.0,0.,24.0,0.,24.0,0.,24.0
1980-11-16 03:26:46.900 ,5,0,0.,24.0,0.,24.0,1.,24.0,0.,24.0
1980-11-16 03:27:10.900 ,6,1,0.,24.0,0.,24.0,0.,24.0,0.,24.0
1980-11-16 03:27:34.900 ,6,0,0.,24.0,0.,24.0,0.,24.0,0.,24.0
1980-11-16 03:27:58.900 ,7,1,0.,24.0,0.,24.0,0.,24.0,0.,24.0
1980-11-16 03:28:22.900 ,7,0,7.,24.0,0.,24.0,0.,24.0,0.,24.0
1980-11-16 03:28:46.900 ,7,1,12.,24.0,0.,24.0,0.,24.0,0.,24.0
1980-11-16 03:29:10.900 ,7,0,5.,24.0,0.,24.0,2.,24.0,0.,24.0
1980-11-16 03:29:34.900 ,6,1,7.,24.0,0.,24.0,0.,24.0,0.,24.0
1980-11-16 03:29:58.900 ,6,0,0.,24.0,0.,24.0,0.,24.0,0.,24.0
1980-11-16 03:30:22.900 ,5,1,0.,24.0,0.,24.0,0.,24.0,0.,24.0
1980-11-16 03:30:46.900 ,5,0,0.,24.0,0.,24.0,1.,24.0,0.,24.0
1980-11-16 03:31:10.900 ,4,1,0.,24.0,0.,24.0,2.,24.0,0.,24.0
1980-11-16 03:31:34.900 ,4,0,0.,24.0,0.,24.0,0.,24.0,0.,24.0
1980-11-16 03:31:58.900 ,3,1,0.,24.0,0.,24.0,0.,24.0,0.,24.0
1980-11-16 03:32:22.900 ,3,0,0.,24.0,0.,24.0,1.,24.0,0.,24.0
1980-11-16 03:32:46.900 ,2,1,0.,24.0,0.,24.0,0.,24.0,0.,24.0
1980-11-16 03:33:10.900 ,2,0,0.,24.0,0.,24.0,0.,24.0,0.,24.0
1980-11-16 03:33:34.900 ,1,1,0.,24.0,0.,24.0,1.,24.0,0.,24.0
1980-11-16 03:33:58.900 ,1,0,0.,24.0,0.,24.0,2.,24.0,0.,24.0
1980-11-16 03:34:22.900 ,0,1,0.,24.0,0.,24.0,1.,24.0,0.,24.0
1980-11-16 03:34:46.900 ,0,0,0.,24.0,0.,24.0,0.,24.0,0.,24.0
1980-11-16 03:35:10.900 ,0,1,1.,24.0,0.,24.0,0.,24.0,0.,24.0
1980-11-16 03:35:34.900 ,0,0,0.,24.0,0.,24.0,0.,24.0,0.,24.0
1980-11-16 03:35:58.900 ,1,1,0.,24.0,0.,24.0,0.,24.0,0.,24.0
1980-11-16 03:36:22.900 ,1,0,0.,24.0,0.,24.0,0.,24.0,0.,24.0
1980-11-16 03:36:46.900 ,2,1,0.,24.0,0.,24.0,1.,24.0,0.,24.0
1980-11-16 03:37:10.900 ,2,0,0.,24.0,0.,24.0,0.,24.0,0.,24.0
1980-11-16 03:37:34.900 ,3,1,0.,24.0,0.,24.0,0.,24.0,0.,24.0
1980-11-16 03:37:58.900 ,3,0,0.,24.0,0.,24.0,0.,24.0,0.,24.0
1980-11-16 03:38:22.900 ,4,1,0.,24.0,0.,24.0,0.,24.0,0.,24.0
1980-11-16 03:38:46.900 ,4,0,0.,24.0,0.,24.0,0.,24.0,0.,24.0
1980-11-16 03:39:10.900 ,5,1,0.,24.0,0.,24.0,0.,24.0,0.,24.0
1980-11-16 03:39:34.900 ,5,0,0.,24.0,0.,24.0,1.,24.0,0.,24.0
1980-11-16 03:39:58.900 ,6,1,0.,24.0,0.,24.0,1.,24.0,0.,24.0
1980-11-16 03:40:22.900 ,6,0,0.,24.0,0.,24.0,0.,24.0,0.,24.0
1980-11-16 03:40:46.900 ,7,1,3.,24.0,0.,24.0,1.,24.0,0.,24.0
1980-11-16 03:41:10.900 ,7,0,14.,24.0,0.,24.0,0.,24.0,0.,24.0
1980-11-16 03:41:34.900 ,7,1,16.,24.0,0.,24.0,0.,24.0,0.,24.0
1980-11-16 03:41:58.900 ,7,0,8.,24.0,0.,24.0,0.,24.0,0.,24.0
1980-11-16 03:42:22.900 ,6,1,4.,24.0,0.,24.0,0.,24.0,0.,24.0
1980-11-16 03:42:46.900 ,6,0,0.,24.0,0.,24.0,0.,24.0,0.,24.0
1980-11-16 03:43:10.900 ,5,1,0.,24.0,0.,24.0,0.,24.0,0.,24.0
1980-11-16 03:43:34.900 ,5,0,0.,24.0,0.,24.0,1.,24.0,0.,24.0
1980-11-16 03:43:58.900 ,4,1,0.,24.0,0.,24.0,1.,24.0,0.,24.0
1980-11-16 03:44:22.900 ,4,0,0.,24.0,0.,24.0,1.,24.0,0.,24.0
1980-11-16 03:44:46.900 ,3,1,0.,24.0,0.,24.0,2.,24.0,0.,24.0
1980-11-16 03:45:10.900 ,3,0,0.,24.0,0.,24.0,1.,24.0,0.,24.0
1980-11-16 03:45:34.900 ,2,1,0.,24.0,0.,24.0,0.,24.0,0.,24.0
1980-11-16 03:45:58.900 ,2,0,0.,24.0,0.,24.0,0.,24.0,0.,24.0
1980-11-16 03:46:22.900 ,1,1,0.,24.0,0.,24.0,0.,24.0,0.,24.0
1980-11-16 03:46:46.900 ,1,0,0.,24.0,0.,24.0,0.,24.0,0.,24.0
1980-11-16 03:47:10.900 ,0,1,0.,24.0,0.,24.0,2.,24.0,0.,24.0
1980-11-16 03:47:34.900 ,0,0,0.,24.0,0.,24.0,0.,24.0,0.,24.0
1980-11-16 03:47:58.900 ,0,1,0.,24.0,0.,24.0,1.,24.0,0.,24.0
1980-11-16 03:48:22.900 ,0,0,0.,24.0,0.,24.0,1.,24.0,0.,24.0
1980-11-16 03:48:46.900 ,1,1,0.,24.0,0.,24.0,1.,24.0,0.,24.0
1980-11-16 03:49:10.900 ,1,0,0.,24.0,0.,24.0,0.,24.0,0.,24.0
1980-11-16 03:49:34.900 ,2,1,0.,24.0,0.,24.0,1.,24.0,0.,24.0
1980-11-16 03:49:58.900 ,2,0,0.,24.0,0.,24.0,0.,24.0,0.,24.0
1980-11-16 03:50:22.900 ,3,1,0.,24.0,0.,24.0,0.,24.0,0.,24.0
1980-11-16 03:50:46.900 ,3,0,0.,24.0,0.,24.0,0.,24.0,0.,24.0
1980-11-16 03:51:10.900 ,4,1,0.,24.0,0.,24.0,0.,24.0,0.,24.0
1980-11-16 03:51:34.900 ,4,0,0.,24.0,0.,24.0,0.,24.0,0.,24.0
1980-11-16 03:51:58.900 ,5,1,0.,24.0,0.,24.0,1.,24.0,0.,24.0
1980-11-16 03:52:22.900 ,5,0,0.,24.0,0.,24.0,0.,24.0,0.,24.0
1980-11-16 03:52:46.900 ,6,1,0.,24.0,0.,24.0,0.,24.0,0.,24.0
1980-11-16 03:53:10.900 ,6,0,0.,24.0,0.,24.0,0.,24.0,0.,24.0
1980-11-16 03:53:34.900 ,7,1,2.,24.0,0.,24.0,0.,24.0,0.,24.0
1980-11-16 03:53:58.900 ,7,0,6.,24.0,0.,24.0,0.,24.0,0.,24.0
1980-11-16 03:54:22.900 ,7,1,14.,24.0,0.,24.0,0.,24.0,0.,24.0
1980-11-16 03:54:46.900 ,7,0,10.,24.0,0.,24.0,0.,24.0,0.,24.0
1980-11-16 03:55:10.900 ,6,1,8.,24.0,0.,24.0,0.,24.0,0.,24.0
1980-11-16 03:55:34.900 ,6,0,0.,24.0,0.,24.0,0.,24.0,0.,24.0
1980-11-16 03:55:58.900 ,5,1,0.,24.0,0.,24.0,1.,24.0,0.,24.0
1980-11-16 03:56:22.900 ,5,0,0.,24.0,0.,24.0,1.,24.0,0.,24.0
1980-11-16 03:56:46.900 ,4,1,0.,24.0,0.,24.0,0.,24.0,0.,24.0
1980-11-16 03:57:10.900 ,4,0,0.,24.0,0.,24.0,1.,24.0,0.,24.0
1980-11-16 03:57:34.900 ,3,1,0.,24.0,0.,24.0,0.,24.0,0.,24.0
1980-11-16 03:57:58.900 ,3,0,0.,24.0,0.,24.0,0.,24.0,0.,24.0
1980-11-16 03:58:22.900 ,2,1,0.,24.0,0.,24.0,0.,24.0,0.,24.0
1980-11-16 03:58:46.900 ,2,0,0.,24.0,0.,24.0,0.,24.0,0.,24.0
1980-11-16 03:59:10.900 ,1,1,0.,24.0,0.,24.0,0.,24.0,0.,24.0
1980-11-16 03:59:34.900 ,1,0,0.,24.0,0.,24.0,0.,24.0,0.,24.0
1980-11-16 03:59:58.900 ,0,1,0.,24.0,0.,24.0,0.,24.0,0.,24.0
1980-11-16 04:00:22.900 ,0,0,0.,24.0,0.,24.0,1.,24.0,0.,24.0
1980-11-16 04:00:46.900 ,0,1,0.,24.0,0.,24.0,0.,24.0,0.,24.0
1980-11-16 04:01:10.900 ,0,0,0.,24.0,0.,24.0,0.,24.0,0.,24.0
1980-11-16 04:01:34.900 ,1,1,0.,24.0,0.,24.0,0.,24.0,0.,24.0
1980-11-16 04:01:58.900 ,1,0,0.,24.0,0.,24.0,1.,24.0,0.,24.0
1980-11-16 04:02:22.900 ,2,1,0.,24.0,0.,24.0,0.,24.0,0.,24.0
1980-11-16 04:02:46.900 ,2,0,0.,24.0,0.,24.0,1.,24.0,0.,24.0
1980-11-16 04:03:10.900 ,3,1,0.,24.0,0.,24.0,0.,24.0,0.,24.0
1980-11-16 04:03:34.900 ,3,0,0.,24.0,0.,24.0,0.,24.0,0.,24.0
1980-11-16 04:03:58.900 ,4,1,0.,24.0,0.,24.0,0.,24.0,0.,24.0
1980-11-16 04:04:22.900 ,4,0,1.,24.0,0.,24.0,0.,24.0,0.,24.0
1980-11-16 04:04:46.900 ,5,1,0.,24.0,0.,24.0,0.,24.0,0.,24.0
1980-11-16 04:05:10.900 ,5,0,0.,24.0,0.,24.0,0.,24.0,0.,24.0
1980-11-16 04:05:34.900 ,6,1,0.,24.0,0.,24.0,0.,24.0,0.,24.0
1980-11-16 04:05:58.900 ,6,0,0.,24.0,0.,24.0,0.,24.0,0.,24.0
1980-11-16 04:06:22.900 ,7,1,2.,24.0,0.,24.0,1.,24.0,0.,24.0
1980-11-16 04:06:46.900 ,7,0,8.,24.0,0.,24.0,0.,24.0,0.,24.0
1980-11-16 04:07:10.900 ,7,1,9.,24.0,0.,24.0,0.,24.0,0.,24.0
1980-11-16 04:07:34.900 ,7,0,12.,24.0,0.,24.0,0.,24.0,0.,24.0
1980-11-16 04:07:58.900 ,6,1,10.,24.0,0.,24.0,0.,24.0,0.,24.0
1980-11-16 04:08:22.900 ,6,0,0.,24.0,0.,24.0,0.,24.0,0.,24.0
1980-11-16 04:08:46.900 ,5,1,0.,24.0,0.,24.0,0.,24.0,0.,24.0
1980-11-16 04:09:10.900 ,5,0,0.,24.0,0.,24.0,0.,24.0,0.,24.0
1980-11-16 04:09:34.900 ,4,1,0.,24.0,0.,24.0,0.,24.0,0.,24.0
1980-11-16 04:09:58.900 ,4,0,0.,24.0,0.,24.0,1.,24.0,0.,24.0
1980-11-16 04:10:22.900 ,3,1,0.,24.0,0.,24.0,0.,24.0,0.,24.0
1980-11-16 04:10:46.900 ,3,0,0.,24.0,0.,24.0,0.,24.0,0.,24.0
1980-11-16 04:11:10.900 ,2,1,0.,24.0,0.,24.0,1.,24.0,0.,24.0
1980-11-16 04:11:34.900 ,2,0,0.,24.0,1.,24.0,0.,24.0,0.,24.0
1980-11-16 04:12:46.900 ,0,0,0.,24.0,0.,24.0,0.,24.0,0.,24.0
1980-11-16 04:13:10.900 ,0,0,0.,24.0,0.,24.0,0.,24.0,0.,24.0
1980-11-16 04:13:34.900 ,0,1,0.,24.0,0.,24.0,0.,24.0,0.,24.0
1980-11-16 04:13:58.900 ,0,0,1.,24.0,0.,24.0,0.,24.0,0.,24.0
1980-11-16 04:14:22.900 ,1,1,0.,24.0,0.,24.0,0.,24.0,0.,24.0
1980-11-16 04:14:46.900 ,1,0,0.,24.0,0.,24.0,0.,24.0,0.,24.0
1980-11-16 04:15:10.900 ,2,1,0.,24.0,0.,24.0,0.,24.0,0.,24.0
1980-11-16 04:15:34.900 ,2,0,0.,24.0,0.,24.0,2.,24.0,0.,24.0
1980-11-16 04:15:58.900 ,3,1,0.,24.0,0.,24.0,0.,24.0,0.,24.0
1980-11-16 04:16:22.900 ,3,0,0.,24.0,0.,24.0,1.,24.0,0.,24.0
1980-11-16 04:16:46.900 ,4,1,0.,24.0,0.,24.0,0.,24.0,0.,24.0
1980-11-16 04:17:10.900 ,4,0,0.,24.0,0.,24.0,0.,24.0,0.,24.0
1980-11-16 04:17:34.900 ,5,1,0.,24.0,1.,24.0,0.,24.0,0.,24.0
1980-11-16 04:17:58.900 ,5,0,0.,24.0,0.,24.0,0.,24.0,0.,24.0
1980-11-16 04:18:22.900 ,6,1,0.,24.0,0.,24.0,1.,24.0,0.,24.0
1980-11-16 04:18:46.900 ,6,0,0.,24.0,0.,24.0,0.,24.0,0.,24.0
1980-11-16 04:19:10.900 ,7,1,2.,24.0,0.,24.0,1.,24.0,0.,24.0
1980-11-16 04:19:34.900 ,7,0,13.,24.0,0.,24.0,0.,24.0,0.,24.0
1980-11-16 04:19:58.900 ,7,1,14.,24.0,0.,24.0,1.,24.0,0.,24.0
1980-11-16 04:20:22.900 ,7,0,10.,24.0,0.,24.0,0.,24.0,0.,24.0
1980-11-16 04:20:46.900 ,6,1,6.,24.0,0.,24.0,0.,24.0,0.,24.0
1980-11-16 04:21:10.900 ,6,0,0.,24.0,0.,24.0,0.,24.0,0.,24.0
1980-11-16 04:21:34.900 ,5,1,0.,24.0,0.,24.0,0.,24.0,0.,24.0
1980-11-16 04:21:58.900 ,5,0,0.,24.0,0.,24.0,1.,24.0,0.,24.0
1980-11-16 04:22:22.900 ,4,1,0.,24.0,0.,24.0,1.,24.0,0.,24.0
1980-11-16 04:22:46.900 ,4,0,0.,24.0,0.,24.0,0.,24.0,0.,24.0
1980-11-16 04:23:10.900 ,3,1,0.,24.0,0.,24.0,0.,24.0,0.,24.0
1980-11-16 04:23:34.900 ,3,0,0.,24.0,0.,24.0,1.,24.0,0.,24.0
1980-11-16 04:23:58.900 ,2,1,0.,24.0,0.,24.0,1.,24.0,0.,24.0
1980-11-16 04:24:22.900 ,2,0,0.,24.0,0.,24.0,0.,24.0,0.,24.0
1980-11-16 04:24:46.900 ,1,1,0.,24.0,0.,24.0,1.,24.0,0.,24.0
1980-11-16 04:25:10.900 ,1,0,1.,24.0,1.,24.0,0.,24.0,0.,24.0
1980-11-16 04:25:34.900 ,0,1,0.,24.0,0.,24.0,1.,24.0,0.,24.0
1980-11-16 04:25:58.900 ,0,0,0.,24.0,0.,24.0,1.,24.0,0.,24.0
1980-11-16 04:26:22.900 ,0,1,1.,24.0,0.,24.0,0.,24.0,0.,24.0
1980-11-16 04:26:46.900 ,0,0,0.,24.0,0.,24.0,1.,24.0,0.,24.0
1980-11-16 04:27:10.900 ,1,1,0.,24.0,0.,24.0,0.,24.0,0.,24.0
1980-11-16 04:27:34.900 ,1,0,0.,24.0,0.,24.0,0.,24.0,0.,24.0
1980-11-16 04:27:58.900 ,2,1,0.,24.0,0.,24.0,0.,24.0,0.,24.0
1980-11-16 04:28:22.900 ,2,0,0.,24.0,0.,24.0,1.,24.0,0.,24.0
1980-11-16 04:28:46.900 ,3,1,0.,24.0,0.,24.0,0.,24.0,0.,24.0
1980-11-16 04:29:10.900 ,3,0,0.,24.0,0.,24.0,0.,24.0,0.,24.0
1980-11-16 04:29:34.900 ,4,1,0.,24.0,0.,24.0,0.,24.0,0.,24.0
1980-11-16 04:29:58.900 ,4,0,0.,24.0,0.,24.0,0.,24.0,0.,24.0
1980-11-16 04:30:22.900 ,5,1,0.,24.0,0.,24.0,0.,24.0,0.,24.0
1980-11-16 04:30:46.900 ,5,0,0.,24.0,0.,24.0,1.,24.0,0.,24.0
1980-11-16 04:31:10.900 ,6,1,0.,24.0,0.,24.0,0.,24.0,0.,24.0
1980-11-16 04:31:34.900 ,6,0,0.,24.0,0.,24.0,0.,24.0,0.,24.0
1980-11-16 04:31:58.900 ,7,1,4.,24.0,0.,24.0,0.,24.0,0.,24.0
1980-11-16 04:32:22.900 ,7,0,9.,24.0,0.,24.0,0.,24.0,0.,24.0
1980-11-16 04:32:46.900 ,7,1,5.,24.0,0.,24.0,0.,24.0,0.,24.0
1980-11-16 04:33:10.900 ,7,0,6.,24.0,0.,24.0,0.,24.0,0.,24.0
1980-11-16 04:33:34.900 ,6,1,6.,24.0,0.,24.0,0.,24.0,0.,24.0
1980-11-16 04:33:58.900 ,6,0,0.,24.0,0.,24.0,1.,24.0,0.,24.0
1980-11-16 04:34:22.900 ,5,1,0.,24.0,0.,24.0,0.,24.0,0.,24.0
1980-11-16 04:34:46.900 ,5,0,0.,24.0,0.,24.0,0.,24.0,0.,24.0
1980-11-16 04:35:10.900 ,4,1,0.,24.0,0.,24.0,2.,24.0,0.,24.0
1980-11-16 04:35:34.900 ,4,0,0.,24.0,0.,24.0,1.,24.0,0.,24.0
1980-11-16 04:35:58.900 ,3,1,0.,24.0,0.,24.0,0.,24.0,0.,24.0
1980-11-16 04:36:22.900 ,3,0,0.,24.0,0.,24.0,0.,24.0,0.,24.0
1980-11-16 04:36:46.900 ,2,1,0.,24.0,0.,24.0,1.,24.0,0.,24.0
1980-11-16 04:37:10.900 ,2,0,0.,24.0,0.,24.0,0.,24.0,0.,24.0
1980-11-16 04:37:34.900 ,1,1,0.,24.0,0.,24.0,0.,24.0,0.,24.0
1980-11-16 04:37:58.900 ,1,0,0.,24.0,0.,24.0,1.,24.0,0.,24.0
1980-11-16 04:38:22.900 ,0,1,0.,24.0,0.,24.0,1.,24.0,0.,24.0
1980-11-16 04:38:46.900 ,0,0,0.,24.0,0.,24.0,1.,24.0,0.,24.0
1980-11-16 04:39:10.900 ,0,1,0.,24.0,0.,24.0,0.,24.0,0.,24.0
1980-11-16 04:39:34.900 ,0,0,0.,24.0,0.,24.0,1.,24.0,0.,24.0
1980-11-16 04:39:58.900 ,1,1,0.,24.0,0.,24.0,0.,24.0,0.,24.0
1980-11-16 04:40:22.900 ,1,0,0.,24.0,0.,24.0,0.,24.0,0.,24.0
1980-11-16 04:40:46.900 ,2,1,0.,24.0,0.,24.0,0.,24.0,0.,24.0
1980-11-16 04:41:10.900 ,2,0,0.,24.0,0.,24.0,1.,24.0,0.,24.0
1980-11-16 04:41:34.900 ,3,1,0.,24.0,0.,24.0,0.,24.0,0.,24.0
1980-11-16 04:41:58.900 ,3,0,0.,24.0,0.,24.0,1.,24.0,0.,24.0
1980-11-16 04:42:22.900 ,4,1,0.,24.0,0.,24.0,0.,24.0,0.,24.0
1980-11-16 04:42:46.900 ,4,0,0.,24.0,0.,24.0,0.,24.0,0.,24.0
1980-11-16 04:43:10.900 ,5,1,0.,24.0,0.,24.0,1.,24.0,0.,24.0
1980-11-16 04:43:34.900 ,5,0,1.,24.0,0.,24.0,1.,24.0,0.,24.0
1980-11-16 04:43:58.900 ,6,1,0.,24.0,0.,24.0,0.,24.0,0.,24.0
1980-11-16 04:44:22.900 ,6,0,0.,24.0,0.,24.0,0.,24.0,0.,24.0
1980-11-16 04:44:46.900 ,7,1,3.,24.0,0.,24.0,0.,24.0,0.,24.0
1980-11-16 04:45:10.900 ,7,0,11.,24.0,0.,24.0,0.,24.0,0.,24.0
1980-11-16 04:45:34.900 ,7,1,7.,24.0,0.,24.0,0.,24.0,0.,24.0
1980-11-16 04:45:58.900 ,7,0,7.,24.0,0.,24.0,0.,24.0,0.,24.0
1980-11-16 04:46:22.900 ,6,1,8.,24.0,0.,24.0,0.,24.0,0.,24.0
1980-11-16 04:46:46.900 ,6,0,0.,24.0,0.,24.0,1.,24.0,0.,24.0
1980-11-16 04:47:10.900 ,5,1,0.,24.0,0.,24.0,0.,24.0,0.,24.0
1980-11-16 04:47:34.900 ,5,0,0.,24.0,0.,24.0,0.,24.0,0.,24.0
1980-11-16 04:47:58.900 ,4,1,0.,24.0,0.,24.0,0.,24.0,0.,24.0
1980-11-16 04:48:22.900 ,4,0,0.,24.0,0.,24.0,0.,24.0,0.,24.0
1980-11-16 04:48:46.900 ,3,1,0.,24.0,0.,24.0,0.,24.0,0.,24.0
1980-11-16 04:49:10.900 ,3,0,0.,24.0,0.,24.0,0.,24.0,0.,24.0
1980-11-16 04:49:34.900 ,2,1,0.,24.0,0.,24.0,0.,24.0,0.,24.0
1980-11-16 04:49:58.900 ,2,0,0.,24.0,0.,24.0,0.,24.0,0.,24.0
1980-11-16 04:50:22.900 ,1,1,0.,24.0,0.,24.0,0.,24.0,0.,24.0
1980-11-16 04:50:46.900 ,1,0,0.,24.0,0.,24.0,1.,24.0,0.,24.0
1980-11-16 04:51:10.900 ,0,1,0.,24.0,0.,24.0,1.,24.0,0.,24.0
1980-11-16 04:51:34.900 ,0,0,0.,24.0,0.,24.0,0.,24.0,0.,24.0
1980-11-16 04:51:58.900 ,0,1,0.,24.0,0.,24.0,0.,24.0,0.,24.0
1980-11-16 04:52:22.900 ,0,0,0.,24.0,0.,24.0,0.,24.0,0.,24.0
1980-11-16 04:52:46.900 ,1,1,0.,24.0,0.,24.0,0.,24.0,0.,24.0
1980-11-16 04:53:10.900 ,1,0,0.,24.0,0.,24.0,0.,24.0,0.,24.0
1980-11-16 04:53:34.900 ,2,1,0.,24.0,0.,24.0,0.,24.0,0.,24.0
1980-11-16 04:53:58.900 ,2,0,0.,24.0,0.,24.0,0.,24.0,0.,24.0
1980-11-16 04:54:22.900 ,3,1,0.,24.0,0.,24.0,0.,24.0,0.,24.0
1980-11-16 04:54:46.900 ,3,0,0.,24.0,0.,24.0,0.,24.0,0.,24.0
1980-11-16 04:55:10.900 ,4,1,0.,24.0,0.,24.0,0.,24.0,0.,24.0
1980-11-16 04:55:34.900 ,4,0,0.,24.0,0.,24.0,1.,24.0,0.,24.0
1980-11-16 04:55:58.900 ,5,1,0.,24.0,0.,24.0,0.,24.0,0.,24.0
1980-11-16 04:56:22.900 ,5,0,0.,24.0,0.,24.0,0.,24.0,0.,24.0
1980-11-16 04:56:46.900 ,6,1,0.,24.0,0.,24.0,0.,24.0,0.,24.0
1980-11-16 04:57:10.900 ,6,0,0.,24.0,0.,24.0,0.,24.0,0.,24.0
1980-11-16 04:57:34.900 ,7,1,2.,24.0,1.,24.0,3.,24.0,0.,24.0
1980-11-16 04:57:58.900 ,7,0,8.,24.0,0.,24.0,0.,24.0,0.,24.0
1980-11-16 04:58:22.900 ,7,1,3.,24.0,0.,24.0,0.,24.0,0.,24.0
1980-11-16 04:58:46.900 ,7,0,12.,24.0,0.,24.0,1.,24.0,0.,24.0
1980-11-16 04:59:10.900 ,6,1,7.,24.0,0.,24.0,0.,24.0,0.,24.0
1980-11-16 04:59:34.900 ,6,0,0.,24.0,0.,24.0,1.,24.0,0.,24.0
1980-11-16 04:59:58.900 ,5,1,0.,24.0,0.,24.0,0.,24.0,0.,24.0
1980-11-16 05:00:22.900 ,5,0,0.,24.0,0.,24.0,0.,24.0,0.,24.0
1980-11-16 05:00:46.900 ,4,1,0.,24.0,0.,24.0,0.,24.0,0.,24.0
1980-11-16 05:01:10.900 ,4,0,1.,24.0,0.,24.0,1.,24.0,0.,24.0
1980-11-16 05:01:34.900 ,3,1,0.,24.0,0.,24.0,0.,24.0,0.,24.0
1980-11-16 05:01:58.900 ,3,0,0.,24.0,0.,24.0,0.,24.0,0.,24.0
1980-11-16 05:02:22.900 ,2,1,0.,24.0,0.,24.0,2.,24.0,0.,24.0
1980-11-16 05:02:46.900 ,2,0,0.,24.0,0.,24.0,1.,24.0,0.,24.0
1980-11-16 05:03:10.900 ,1,1,1.,24.0,0.,24.0,0.,24.0,0.,24.0
1980-11-16 05:03:34.900 ,1,0,0.,24.0,0.,24.0,1.,24.0,0.,24.0
1980-11-16 05:03:58.900 ,0,1,0.,24.0,0.,24.0,0.,24.0,0.,24.0
1980-11-16 05:04:22.900 ,0,0,0.,24.0,0.,24.0,2.,24.0,0.,24.0
1980-11-16 05:05:34.900 ,0,0,0.,24.0,0.,24.0,0.,24.0,0.,24.0
1980-11-16 05:05:58.900 ,0,0,0.,24.0,0.,24.0,1.,24.0,0.,24.0
1980-11-16 05:06:22.900 ,2,1,0.,24.0,0.,24.0,2.,24.0,0.,24.0
1980-11-16 05:06:46.900 ,2,0,0.,24.0,0.,24.0,0.,24.0,0.,24.0
1980-11-16 05:07:10.900 ,3,1,0.,24.0,0.,24.0,0.,24.0,0.,24.0
1980-11-16 05:07:34.900 ,3,0,0.,24.0,0.,24.0,0.,24.0,0.,24.0
1980-11-16 05:07:58.900 ,4,1,0.,24.0,0.,24.0,0.,24.0,0.,24.0
1980-11-16 05:08:22.900 ,4,0,0.,24.0,0.,24.0,1.,24.0,0.,24.0
1980-11-16 05:08:46.900 ,5,1,0.,24.0,0.,24.0,2.,24.0,0.,24.0
1980-11-16 05:09:10.900 ,5,0,0.,24.0,0.,24.0,0.,24.0,0.,24.0
1980-11-16 05:09:34.900 ,6,1,1.,24.0,0.,24.0,0.,24.0,0.,24.0
1980-11-16 05:09:58.900 ,6,0,0.,24.0,0.,24.0,0.,24.0,0.,24.0
1980-11-16 05:10:22.900 ,7,1,6.,24.0,0.,24.0,0.,24.0,0.,24.0
1980-11-16 05:10:46.900 ,7,0,13.,24.0,0.,24.0,0.,24.0,0.,24.0
1980-11-16 05:11:10.900 ,7,1,9.,24.0,0.,24.0,1.,24.0,0.,24.0
1980-11-16 05:11:34.900 ,7,0,7.,24.0,0.,24.0,0.,24.0,0.,24.0
1980-11-16 05:11:58.900 ,6,1,10.,24.0,0.,24.0,0.,24.0,0.,24.0
1980-11-16 05:12:22.900 ,6,0,0.,24.0,0.,24.0,0.,24.0,0.,24.0
1980-11-16 05:12:46.900 ,5,1,0.,24.0,0.,24.0,0.,24.0,0.,24.0
1980-11-16 05:13:10.900 ,0,0,0.,24.0,0.,24.0,0.,24.0,0.,24.0
1980-11-16 05:13:51.700 ,0,0,,0,,0,,0,,0
1980-11-16 05:13:58.900 ,0,0,1.,24.0,0.,24.0,0.,24.0,0.,24.0
1980-11-16 05:14:22.900 ,3,1,0.,24.0,0.,24.0,0.,24.0,0.,24.0
1980-11-16 05:14:46.900 ,3,0,0.,24.0,0.,24.0,0.,24.0,0.,24.0
1980-11-16 05:15:10.900 ,2,1,0.,24.0,0.,24.0,0.,24.0,0.,24.0
1980-11-16 05:15:34.900 ,2,0,0.,24.0,0.,24.0,1.,24.0,0.,24.0
1980-11-16 05:15:58.900 ,1,1,0.,24.0,0.,24.0,0.,24.0,0.,24.0
1980-11-16 05:16:22.900 ,1,0,0.,24.0,0.,24.0,0.,24.0,0.,24.0
1980-11-16 05:16:46.900 ,0,1,0.,24.0,0.,24.0,0.,24.0,0.,24.0
1980-11-16 05:17:10.900 ,0,0,0.,24.0,0.,24.0,0.,24.0,0.,24.0
1980-11-16 05:17:34.900 ,0,1,0.,24.0,0.,24.0,0.,24.0,0.,24.0
1980-11-16 05:17:58.900 ,0,0,0.,24.0,0.,24.0,1.,24.0,0.,24.0
1980-11-16 05:18:22.900 ,1,1,0.,24.0,0.,24.0,0.,24.0,0.,24.0
1980-11-16 05:18:46.900 ,1,0,0.,24.0,0.,24.0,0.,24.0,0.,24.0
1980-11-16 05:19:10.900 ,2,1,0.,24.0,0.,24.0,0.,24.0,0.,24.0
1980-11-16 05:19:34.900 ,2,0,0.,24.0,0.,24.0,1.,24.0,0.,24.0
1980-11-16 05:19:58.900 ,0,0,0.,24.0,0.,24.0,0.,24.0,0.,24.0
1980-11-16 05:20:22.900 ,0,0,0.,24.0,0.,24.0,2.,24.0,0.,24.0
1980-11-16 05:20:46.900 ,4,1,0.,24.0,0.,24.0,0.,24.0,0.,24.0
1980-11-16 05:21:10.900 ,4,0,0.,24.0,0.,24.0,1.,24.0,0.,24.0
1980-11-16 05:21:34.900 ,5,1,0.,24.0,0.,24.0,1.,24.0,0.,24.0
1980-11-16 05:21:58.900 ,5,0,0.,24.0,0.,24.0,0.,24.0,0.,24.0
1980-11-16 05:22:22.900 ,6,1,0.,24.0,0.,24.0,0.,24.0,0.,24.0
1980-11-16 05:22:46.900 ,6,0,0.,24.0,0.,24.0,0.,24.0,0.,24.0
1980-11-16 05:23:10.900 ,7,1,0.,24.0,0.,24.0,0.,24.0,0.,24.0
1980-11-16 05:23:34.900 ,7,0,9.,24.0,0.,24.0,1.,24.0,0.,24.0
1980-11-16 05:23:58.900 ,7,1,7.,24.0,0.,24.0,0.,24.0,0.,24.0
1980-11-16 05:24:22.900 ,7,0,8.,24.0,0.,24.0,0.,24.0,0.,24.0
1980-11-16 05:24:46.900 ,6,1,13.,24.0,0.,24.0,1.,24.0,0.,24.0
1980-11-16 05:25:10.900 ,6,0,0.,24.0,0.,24.0,0.,24.0,0.,24.0
1980-11-16 05:25:34.900 ,5,1,0.,24.0,0.,24.0,0.,24.0,0.,24.0
1980-11-16 05:25:58.900 ,5,0,0.,24.0,0.,24.0,0.,24.0,0.,24.0
1980-11-16 05:26:22.900 ,4,1,0.,24.0,0.,24.0,1.,24.0,0.,24.0
1980-11-16 05:26:46.900 ,4,0,0.,24.0,0.,24.0,0.,24.0,0.,24.0
1980-11-16 05:27:10.900 ,3,1,0.,24.0,0.,24.0,0.,24.0,0.,24.0
1980-11-16 05:27:34.900 ,3,0,0.,24.0,0.,24.0,1.,24.0,0.,24.0
1980-11-16 05:27:58.900 ,2,1,0.,24.0,0.,24.0,1.,24.0,0.,24.0
1980-11-16 05:28:22.900 ,2,0,0.,24.0,0.,24.0,0.,24.0,0.,24.0
1980-11-16 05:28:46.900 ,1,1,0.,24.0,0.,24.0,0.,24.0,0.,24.0
1980-11-16 05:29:10.900 ,1,0,0.,24.0,0.,24.0,0.,24.0,0.,24.0
1980-11-16 05:29:34.900 ,0,1,0.,24.0,0.,24.0,0.,24.0,0.,24.0
1980-11-16 05:29:58.900 ,0,0,0.,24.0,0.,24.0,0.,24.0,0.,24.0
1980-11-16 05:30:22.900 ,0,1,0.,24.0,0.,24.0,0.,24.0,0.,24.0
1980-11-16 05:30:46.900 ,0,0,0.,24.0,0.,24.0,0.,24.0,0.,24.0
1980-11-16 05:31:10.900 ,1,1,0.,24.0,0.,24.0,0.,24.0,0.,24.0
1980-11-16 05:31:34.900 ,1,0,0.,24.0,0.,24.0,1.,24.0,0.,24.0
1980-11-16 05:31:58.900 ,2,1,0.,24.0,0.,24.0,0.,24.0,0.,24.0
1980-11-16 05:32:22.900 ,2,0,0.,24.0,0.,24.0,0.,24.0,0.,24.0
1980-11-16 05:32:46.900 ,3,1,0.,24.0,0.,24.0,0.,24.0,0.,24.0
1980-11-16 05:33:10.900 ,3,0,0.,24.0,0.,24.0,0.,24.0,0.,24.0
1980-11-16 05:36:46.900 ,0,0,7.,24.0,0.,24.0,0.,24.0,0.,24.0
1980-11-16 05:37:10.900 ,0,0,9.,24.0,0.,24.0,1.,24.0,0.,24.0
1980-11-16 05:37:34.900 ,6,1,9.,24.0,0.,24.0,0.,24.0,0.,24.0
1980-11-16 05:37:58.900 ,6,0,0.,24.0,0.,24.0,0.,24.0,0.,24.0
1980-11-16 05:38:22.900 ,5,1,0.,24.0,0.,24.0,0.,24.0,0.,24.0
1980-11-16 05:38:46.900 ,5,0,0.,24.0,0.,24.0,0.,24.0,0.,24.0
1980-11-16 05:39:10.900 ,4,1,0.,24.0,0.,24.0,0.,24.0,0.,24.0